AFR389 TNCM-LFPG

Flight info

Callsign AFR389
Flight time N/A
Altitude 39000
Route MNOLO M576 OBIKE DCT 20N060W 23N055W 26N050W 32N040W 35N030W 3830N02000W DCT DETOX/N0476F400 DCT PETEK DCT LOTEE DCT GATMO DCT NTS DCT ANG/N0449F300 UN741 TEMTO DCT ROMGO
Aircraft A332/H-SDE3GHIJ2J3J5M1RVWXY/LB2D1

Departure

Time N/A
Airport Princess Juliana International Airport (TNCM)

Arrival

Time 2026-05-08 12:57
Airport Charles de Gaulle International Airport (LFPG)
Time Latitude Longitude Altitude Speed Heading
2026-05-08 11:12 42.79804 -11.66681 38861 ft 486 kts 66°
2026-05-08 11:12 42.81272 -11.62539 38861 ft 486 kts 66°
2026-05-08 11:13 42.84199 -11.54272 38860 ft 486 kts 66°
2026-05-08 11:13 42.87128 -11.45978 38859 ft 486 kts 66°
2026-05-08 11:14 42.90016 -11.37775 38859 ft 485 kts 66°
2026-05-08 11:14 42.92930 -11.29473 38861 ft 485 kts 66°
2026-05-08 11:15 42.95835 -11.21171 38865 ft 485 kts 66°
2026-05-08 11:15 42.98734 -11.12860 38865 ft 485 kts 66°
2026-05-08 11:16 43.01624 -11.04549 38865 ft 485 kts 66°
2026-05-08 11:16 43.04512 -10.96221 38868 ft 485 kts 67°
2026-05-08 11:17 43.07392 -10.87890 38865 ft 484 kts 67°
2026-05-08 11:17 43.10263 -10.79559 38869 ft 484 kts 67°
2026-05-08 11:18 43.13126 -10.71227 38877 ft 484 kts 67°
2026-05-08 11:18 43.15980 -10.62895 38871 ft 483 kts 67°
2026-05-08 11:19 43.18827 -10.54561 38866 ft 483 kts 67°
2026-05-08 11:19 43.21661 -10.46235 38870 ft 482 kts 67°
2026-05-08 11:20 43.24490 -10.37899 38870 ft 482 kts 67°
2026-05-08 11:20 43.27313 -10.29557 38881 ft 482 kts 68°
2026-05-08 11:21 43.30133 -10.21197 38874 ft 482 kts 68°
2026-05-08 11:21 43.32945 -10.12837 38875 ft 482 kts 68°
2026-05-08 11:22 43.35726 -10.04543 38875 ft 481 kts 68°
2026-05-08 11:22 43.38519 -9.96184 38876 ft 481 kts 68°
2026-05-08 11:23 43.41307 -9.87818 38874 ft 481 kts 68°
2026-05-08 11:23 43.44084 -9.79457 38876 ft 480 kts 68°
2026-05-08 11:24 43.46852 -9.71100 38879 ft 480 kts 68°
2026-05-08 11:24 43.49612 -9.62737 38878 ft 480 kts 68°
2026-05-08 11:25 43.52366 -9.54368 38878 ft 480 kts 68°
2026-05-08 11:25 43.55113 -9.45992 38861 ft 480 kts 68°
2026-05-08 11:26 43.57856 -9.37607 38875 ft 480 kts 68°
2026-05-08 11:26 43.60595 -9.29203 38876 ft 480 kts 69°
2026-05-08 11:27 43.63325 -9.20803 38873 ft 480 kts 69°
2026-05-08 11:27 43.66050 -9.12389 38873 ft 480 kts 69°
2026-05-08 11:28 43.68766 -9.03977 38873 ft 479 kts 69°
2026-05-08 11:28 43.71471 -8.95576 38870 ft 478 kts 69°
2026-05-08 11:29 43.74169 -8.87167 38872 ft 478 kts 69°
2026-05-08 11:29 43.76860 -8.78753 38875 ft 478 kts 69°
2026-05-08 11:30 43.79525 -8.70391 38857 ft 478 kts 69°
2026-05-08 11:30 43.82201 -8.61972 38875 ft 477 kts 69°
2026-05-08 11:31 43.84864 -8.53566 38878 ft 477 kts 69°
2026-05-08 11:31 43.87521 -8.45153 38878 ft 476 kts 69°
2026-05-08 11:32 43.90170 -8.36735 38878 ft 476 kts 69°
2026-05-08 11:32 43.92266 -8.30057 38875 ft 476 kts 69°
2026-05-08 11:33 43.94899 -8.21644 38883 ft 474 kts 69°
2026-05-08 11:33 43.97518 -8.13246 38883 ft 474 kts 69°
2026-05-08 11:34 44.00129 -8.04849 38884 ft 474 kts 70°
2026-05-08 11:34 44.02294 -7.97864 38884 ft 474 kts 70°
2026-05-08 11:35 44.04895 -7.89448 38883 ft 474 kts 70°
2026-05-08 11:35 44.07489 -7.81027 38884 ft 474 kts 70°
2026-05-08 11:36 44.10077 -7.72600 38883 ft 474 kts 70°
2026-05-08 11:36 44.12659 -7.64164 38884 ft 474 kts 70°
2026-05-08 11:37 44.15233 -7.55725 38885 ft 473 kts 70°
2026-05-08 11:37 44.17795 -7.47304 38879 ft 471 kts 70°
2026-05-08 11:38 44.20342 -7.38899 38886 ft 470 kts 70°
2026-05-08 11:38 44.22877 -7.30505 38885 ft 470 kts 70°
2026-05-08 11:39 44.25407 -7.22102 38886 ft 470 kts 70°
2026-05-08 11:39 44.27932 -7.13686 38886 ft 470 kts 70°
2026-05-08 11:40 44.30451 -7.05263 38891 ft 471 kts 70°
2026-05-08 11:40 44.32968 -6.96823 38888 ft 470 kts 70°
2026-05-08 11:41 44.35475 -6.88385 38889 ft 470 kts 70°
2026-05-08 11:41 44.37975 -6.79941 38884 ft 470 kts 70°
2026-05-08 11:42 44.40470 -6.71489 38889 ft 470 kts 70°
2026-05-08 11:42 44.42957 -6.63032 38901 ft 470 kts 70°
2026-05-08 11:43 44.45436 -6.54578 38890 ft 469 kts 71°
2026-05-08 11:43 44.47906 -6.46124 38868 ft 469 kts 70°
2026-05-08 11:44 44.50370 -6.37662 38882 ft 470 kts 70°
2026-05-08 11:44 44.52831 -6.29178 38886 ft 470 kts 70°
2026-05-08 11:45 44.55287 -6.20689 38884 ft 470 kts 71°
2026-05-08 11:45 44.57719 -6.12249 38882 ft 470 kts 71°
2026-05-08 11:46 44.60162 -6.03748 38876 ft 471 kts 71°
2026-05-08 11:46 44.62606 -5.95209 38877 ft 472 kts 71°
2026-05-08 11:47 44.65158 -5.86711 38882 ft 474 kts 65°
2026-05-08 11:47 44.68984 -5.79144 38877 ft 478 kts 51°
2026-05-08 11:48 44.73479 -5.72231 38873 ft 479 kts 49°
2026-05-08 11:48 44.78090 -5.65440 38871 ft 480 kts 48°
2026-05-08 11:49 44.82701 -5.58631 38873 ft 481 kts 49°
2026-05-08 11:49 44.87293 -5.51780 38873 ft 481 kts 49°
2026-05-08 11:50 44.91865 -5.44916 38870 ft 480 kts 49°
2026-05-08 11:50 44.96430 -5.38042 38871 ft 480 kts 49°
2026-05-08 11:51 45.00989 -5.31160 38865 ft 480 kts 49°
2026-05-08 11:51 45.05549 -5.24262 38869 ft 480 kts 49°
2026-05-08 11:52 45.10112 -5.17343 38867 ft 481 kts 49°
2026-05-08 11:52 45.14641 -5.10457 38867 ft 481 kts 49°
2026-05-08 11:53 45.19193 -5.03520 38867 ft 481 kts 49°
2026-05-08 11:53 45.23741 -4.96570 38863 ft 481 kts 49°
2026-05-08 11:54 45.28286 -4.89609 38870 ft 480 kts 49°
2026-05-08 11:54 45.32816 -4.82652 38866 ft 479 kts 49°
2026-05-08 11:55 45.37336 -4.75693 38869 ft 479 kts 49°
2026-05-08 11:55 45.41857 -4.68715 38871 ft 479 kts 49°
2026-05-08 11:56 45.46366 -4.61736 38866 ft 479 kts 49°
2026-05-08 11:56 45.50872 -4.54746 38864 ft 479 kts 49°
2026-05-08 11:57 45.55374 -4.47744 38872 ft 479 kts 49°
2026-05-08 11:57 45.59871 -4.40731 38888 ft 479 kts 49°
2026-05-08 11:58 45.64368 -4.33703 38887 ft 479 kts 49°
2026-05-08 11:58 45.68857 -4.26666 38888 ft 479 kts 49°
2026-05-08 11:59 45.75589 -4.16080 38889 ft 479 kts 49°
2026-05-08 11:59 45.80068 -4.09016 38889 ft 479 kts 49°
2026-05-08 12:00 45.84546 -4.01935 38903 ft 479 kts 49°
2026-05-08 12:00 45.89019 -3.94841 38902 ft 479 kts 49°
2026-05-08 12:01 45.93489 -3.87735 38901 ft 480 kts 49°
2026-05-08 12:01 45.97929 -3.80658 38906 ft 480 kts 49°
2026-05-08 12:02 46.02395 -3.73522 38909 ft 480 kts 49°
2026-05-08 12:02 46.06713 -3.66226 38911 ft 479 kts 52°
2026-05-08 12:03 46.10848 -3.58695 38917 ft 479 kts 53°
2026-05-08 12:03 46.14959 -3.51137 38918 ft 480 kts 53°
2026-05-08 12:04 46.19096 -3.43576 38924 ft 480 kts 52°
2026-05-08 12:04 46.23243 -3.36020 38925 ft 480 kts 52°
2026-05-08 12:05 46.27385 -3.28460 38931 ft 480 kts 52°
2026-05-08 12:05 46.31522 -3.20888 38932 ft 480 kts 53°
2026-05-08 12:06 46.35658 -3.13292 38935 ft 481 kts 52°
2026-05-08 12:06 46.39794 -3.05676 38939 ft 481 kts 52°
2026-05-08 12:07 46.43925 -2.98050 38943 ft 481 kts 52°
2026-05-08 12:07 46.48052 -2.90410 38947 ft 481 kts 52°
2026-05-08 12:08 46.52175 -2.82757 38950 ft 481 kts 52°
2026-05-08 12:08 46.56292 -2.75091 38952 ft 482 kts 52°
2026-05-08 12:09 46.60412 -2.67400 38950 ft 482 kts 52°
2026-05-08 12:09 46.64529 -2.59694 38950 ft 482 kts 52°
2026-05-08 12:10 46.68614 -2.52025 38951 ft 482 kts 52°
2026-05-08 12:10 46.72719 -2.44298 38953 ft 482 kts 53°
2026-05-08 12:11 46.76821 -2.36554 38955 ft 483 kts 52°
2026-05-08 12:11 46.80901 -2.28832 38954 ft 484 kts 52°
2026-05-08 12:12 46.85003 -2.21045 38955 ft 484 kts 53°
2026-05-08 12:12 46.89100 -2.13247 38955 ft 484 kts 53°
2026-05-08 12:13 46.93192 -2.05436 38951 ft 483 kts 53°
2026-05-08 12:13 46.97271 -1.97627 38955 ft 485 kts 52°
2026-05-08 12:14 47.01372 -1.89755 38957 ft 487 kts 52°
2026-05-08 12:14 47.05473 -1.81858 38957 ft 487 kts 53°
2026-05-08 12:15 47.09570 -1.73948 38956 ft 487 kts 53°
2026-05-08 12:15 47.13661 -1.66026 38967 ft 487 kts 53°
2026-05-08 12:16 47.17733 -1.58071 38972 ft 488 kts 53°
2026-05-08 12:16 47.21768 -1.50001 38964 ft 490 kts 53°
2026-05-08 12:17 47.25792 -1.41892 38964 ft 491 kts 53°
2026-05-08 12:17 47.29818 -1.33768 38962 ft 491 kts 53°
2026-05-08 12:18 47.33812 -1.25699 38963 ft 491 kts 53°
2026-05-08 12:18 47.37861 -1.17498 38962 ft 492 kts 53°
2026-05-08 12:19 47.41864 -1.09367 38968 ft 494 kts 53°
2026-05-08 12:19 47.45894 -1.01155 38966 ft 494 kts 53°
2026-05-08 12:20 47.49921 -0.92926 38974 ft 494 kts 53°
2026-05-08 12:20 47.53644 -0.84397 38974 ft 495 kts 64°
2026-05-08 12:21 47.56261 -0.74961 38981 ft 497 kts 69°
2026-05-08 12:21 47.58634 -0.65335 38989 ft 498 kts 69°
2026-05-08 12:22 47.60187 -0.60772 38996 ft 496 kts 55°
2026-05-08 12:22 47.62189 -0.56606 38991 ft 496 kts 51°
2026-05-08 12:22 47.66391 -0.48486 38992 ft 497 kts 50°
2026-05-08 12:23 47.68516 -0.44431 38867 ft 496 kts 50°
2026-05-08 12:23 47.70630 -0.40399 38630 ft 495 kts 50°
2026-05-08 12:23 47.72029 -0.37730 38450 ft 494 kts 50°
2026-05-08 12:23 47.74141 -0.33699 38157 ft 494 kts 50°
2026-05-08 12:24 47.76247 -0.29672 37888 ft 494 kts 50°
2026-05-08 12:24 47.78355 -0.25638 37607 ft 493 kts 50°
2026-05-08 12:24 47.80457 -0.21610 37354 ft 493 kts 50°
2026-05-08 12:24 47.82542 -0.17604 37052 ft 486 kts 50°
2026-05-08 12:25 47.84599 -0.13649 36612 ft 481 kts 50°
2026-05-08 12:25 47.87290 -0.08466 36013 ft 475 kts 49°
2026-05-08 12:25 47.88654 -0.05836 35705 ft 472 kts 49°
2026-05-08 12:25 47.90650 -0.01981 35264 ft 468 kts 49°
2026-05-08 12:26 47.92631 0.01848 34830 ft 465 kts 49°
2026-05-08 12:26 47.94605 0.05669 34172 ft 466 kts 48°
2026-05-08 12:26 47.96587 0.09509 33255 ft 469 kts 49°
2026-05-08 12:26 47.98563 0.13338 32229 ft 475 kts 49°
2026-05-08 12:27 48.00588 0.17272 31201 ft 480 kts 49°
2026-05-08 12:27 48.02629 0.21245 30366 ft 481 kts 49°
2026-05-08 12:27 48.04656 0.25202 29644 ft 476 kts 49°
2026-05-08 12:27 48.06655 0.29110 28923 ft 471 kts 49°
2026-05-08 12:28 48.08634 0.32982 28228 ft 466 kts 49°
2026-05-08 12:28 48.10591 0.36817 27535 ft 461 kts 49°
2026-05-08 12:28 48.12524 0.40608 26832 ft 456 kts 49°
2026-05-08 12:28 48.14439 0.44370 26132 ft 453 kts 49°
2026-05-08 12:29 48.16340 0.48109 25429 ft 449 kts 49°
2026-05-08 12:29 48.18225 0.51820 24727 ft 446 kts 49°
2026-05-08 12:29 48.20093 0.55502 24024 ft 443 kts 49°
2026-05-08 12:29 48.21949 0.59166 23252 ft 440 kts 49°
2026-05-08 12:30 48.23792 0.62811 22502 ft 435 kts 49°
2026-05-08 12:30 48.25608 0.66407 21824 ft 430 kts 49°
2026-05-08 12:30 48.27401 0.69961 21144 ft 425 kts 50°
2026-05-08 12:30 48.29172 0.73475 20473 ft 420 kts 50°
2026-05-08 12:31 48.30923 0.76954 19813 ft 415 kts 51°
2026-05-08 12:31 48.32656 0.80402 19143 ft 411 kts 51°
2026-05-08 12:31 48.34342 0.83852 18475 ft 408 kts 56°
2026-05-08 12:31 48.35763 0.87516 17798 ft 404 kts 61°
2026-05-08 12:32 48.37065 0.91227 17135 ft 398 kts 62°
2026-05-08 12:32 48.38332 0.94903 16485 ft 394 kts 62°
2026-05-08 12:32 48.39585 0.98544 15843 ft 390 kts 62°
2026-05-08 12:32 48.40826 1.02147 15295 ft 387 kts 62°
2026-05-08 12:33 48.42047 1.05694 14860 ft 387 kts 62°
2026-05-08 12:33 48.43281 1.09281 14405 ft 384 kts 62°
2026-05-08 12:33 48.44504 1.12838 14027 ft 381 kts 62°
2026-05-08 12:33 48.45721 1.16380 13661 ft 379 kts 62°
2026-05-08 12:34 48.46929 1.19896 13282 ft 376 kts 62°
2026-05-08 12:34 48.48113 1.23353 13055 ft 363 kts 62°
2026-05-08 12:34 48.49235 1.26634 13031 ft 341 kts 62°
2026-05-08 12:34 48.50289 1.29722 13027 ft 322 kts 62°
2026-05-08 12:35 48.51302 1.32685 13030 ft 316 kts 63°
2026-05-08 12:35 48.52309 1.35619 13034 ft 315 kts 63°
2026-05-08 12:35 48.53315 1.38549 13032 ft 315 kts 63°
2026-05-08 12:35 48.54323 1.41487 13034 ft 315 kts 63°
2026-05-08 12:36 48.55329 1.44418 13035 ft 314 kts 63°
2026-05-08 12:36 48.56333 1.47351 13040 ft 315 kts 63°
2026-05-08 12:36 48.57407 1.50226 13040 ft 314 kts 54°
2026-05-08 12:36 48.58815 1.52737 13039 ft 314 kts 46°
2026-05-08 12:37 48.60411 1.55209 13050 ft 347 kts 44°
2026-05-08 12:37 48.62175 1.57891 13038 ft 367 kts 44°
2026-05-08 12:37 48.63989 1.60659 13038 ft 373 kts 45°
2026-05-08 12:37 48.65812 1.63453 13043 ft 373 kts 45°
2026-05-08 12:38 48.67628 1.66247 13044 ft 373 kts 45°
2026-05-08 12:38 48.69444 1.69046 13042 ft 372 kts 45°
2026-05-08 12:38 48.71256 1.71844 13042 ft 372 kts 45°
2026-05-08 12:38 48.73069 1.74648 13040 ft 373 kts 45°
2026-05-08 12:39 48.74879 1.77451 13044 ft 372 kts 45°
2026-05-08 12:39 48.76690 1.80260 13047 ft 373 kts 45°
2026-05-08 12:39 48.78501 1.83070 13045 ft 373 kts 45°
2026-05-08 12:39 48.80311 1.85883 13045 ft 373 kts 45°
2026-05-08 12:40 48.82138 1.88724 13049 ft 384 kts 45°
2026-05-08 12:40 48.84040 1.91687 13046 ft 398 kts 46°
2026-05-08 12:40 48.85974 1.94700 13048 ft 397 kts 46°
2026-05-08 12:40 48.87896 1.97693 13048 ft 395 kts 44°
2026-05-08 12:41 48.90071 2.00187 13046 ft 386 kts 27°
2026-05-08 12:41 48.92521 2.01412 12991 ft 360 kts
2026-05-08 12:41 48.94947 2.01316 12763 ft 341 kts 347°
2026-05-08 12:41 48.97191 2.00449 12548 ft 326 kts 342°
2026-05-08 12:42 48.99296 1.99514 12360 ft 313 kts 342°
2026-05-08 12:42 49.01378 1.98586 12038 ft 305 kts 341°
2026-05-08 12:42 49.03400 1.97680 11649 ft 301 kts 341°
2026-05-08 12:42 49.05367 1.96796 11232 ft 298 kts 342°
2026-05-08 12:43 49.07366 1.95877 10801 ft 295 kts 342°
2026-05-08 12:43 49.09290 1.94951 10394 ft 292 kts 342°
2026-05-08 12:43 49.11218 1.94003 9994 ft 290 kts 342°
2026-05-08 12:43 49.13121 1.93049 9563 ft 287 kts 342°
2026-05-08 12:44 49.15008 1.92097 9109 ft 284 kts 341°
2026-05-08 12:44 49.16831 1.90974 8631 ft 282 kts 328°
2026-05-08 12:44 49.18217 1.88892 8176 ft 281 kts 302°
2026-05-08 12:44 49.18851 1.86109 7746 ft 279 kts 276°
2026-05-08 12:45 49.18612 1.83205 7312 ft 277 kts 249°
2026-05-08 12:45 49.17538 1.80814 7079 ft 275 kts 221°
2026-05-08 12:45 49.15862 1.79450 7055 ft 276 kts 194°
2026-05-08 12:45 49.13959 1.79373 7058 ft 276 kts 169°
2026-05-08 12:46 49.12102 1.80126 7021 ft 276 kts 162°
2026-05-08 12:46 49.10273 1.81028 6911 ft 276 kts 162°
2026-05-08 12:46 49.08451 1.81942 6554 ft 273 kts 161°
2026-05-08 12:46 49.06682 1.82829 6395 ft 262 kts 161°
2026-05-08 12:47 49.04987 1.83678 6239 ft 250 kts 161°
2026-05-08 12:47 49.03386 1.84473 6053 ft 234 kts 161°
2026-05-08 12:47 49.01882 1.85205 5755 ft 222 kts 161°
2026-05-08 12:47 49.00520 1.86213 5383 ft 215 kts 143°
2026-05-08 12:48 48.99412 1.87695 5000 ft 210 kts 126°
2026-05-08 12:48 48.98725 1.89618 4585 ft 206 kts 108°
2026-05-08 12:48 48.98389 1.91722 4202 ft 203 kts 100°
2026-05-08 12:48 48.98148 1.93834 3986 ft 203 kts 99°
2026-05-08 12:49 48.97916 1.95963 3964 ft 204 kts 99°
2026-05-08 12:49 48.97680 1.98116 3969 ft 206 kts 98°
2026-05-08 12:49 48.97569 2.00271 3963 ft 204 kts 88°
2026-05-08 12:49 48.97754 2.02412 3764 ft 206 kts 73°
2026-05-08 12:50 48.98416 2.04335 3550 ft 205 kts 55°
2026-05-08 12:50 48.99291 2.06037 3363 ft 202 kts 52°
2026-05-08 12:50 49.00147 2.07721 3098 ft 201 kts 61°
2026-05-08 12:50 49.00607 2.09713 2975 ft 200 kts 79°
2026-05-08 12:51 49.00620 2.11817 2971 ft 200 kts 96°
2026-05-08 12:51 49.00506 2.16023 2965 ft 199 kts 87°
2026-05-08 12:51 49.00605 2.18117 2969 ft 199 kts 85°
2026-05-08 12:52 49.00722 2.20228 2961 ft 200 kts 85°
2026-05-08 12:52 49.00960 2.24441 2984 ft 197 kts 85°
2026-05-08 12:52 49.01074 2.26492 2970 ft 191 kts 85°
2026-05-08 12:53 49.01182 2.28471 2964 ft 190 kts 85°
2026-05-08 12:53 49.01286 2.30438 2957 ft 183 kts 85°
2026-05-08 12:53 49.01387 2.32347 2960 ft 178 kts 85°
2026-05-08 12:53 49.01483 2.34157 2797 ft 168 kts 85°
2026-05-08 12:54 49.01579 2.35895 2557 ft 163 kts 86°
2026-05-08 12:54 49.01670 2.37603 2339 ft 161 kts 84°
2026-05-08 12:54 49.01761 2.39307 2120 ft 162 kts 85°
2026-05-08 12:54 49.01853 2.40996 1894 ft 159 kts 85°
2026-05-08 12:55 49.01943 2.42673 1699 ft 161 kts 85°
2026-05-08 12:55 49.02032 2.44383 1458 ft 163 kts 85°
2026-05-08 12:55 49.02120 2.46091 1219 ft 161 kts 85°
2026-05-08 12:55 49.02196 2.47799 1020 ft 163 kts 85°
2026-05-08 12:56 49.02297 2.49472 818 ft 153 kts 83°
2026-05-08 12:56 49.02403 2.50996 585 ft 137 kts 86°
2026-05-08 12:56 49.02467 2.52408 401 ft 132 kts 84°
2026-05-08 12:56 49.02543 2.53751 366 ft 116 kts 81°
2026-05-08 12:57 49.02597 2.54772 360 ft 78 kts 86°
2026-05-08 12:57 49.02523 2.55436 365 ft 37 kts 114°
2026-05-08 12:57 49.02446 2.55598 367 ft 16 kts 160°
2026-05-08 12:57 49.02400 2.55613 361 ft 0 kts 175°
2026-05-08 12:58 49.02393 2.55614 360 ft 7 kts 175°
2026-05-08 12:59 49.02312 2.55623 366 ft 14 kts 175°
2026-05-08 12:59 49.02204 2.55636 364 ft 17 kts 175°
2026-05-08 12:59 49.02113 2.55647 361 ft 6 kts 175°
2026-05-08 12:59 49.02081 2.55651 363 ft 6 kts 175°
2026-05-08 13:00 49.02076 2.55651 358 ft 0 kts 175°
2026-05-08 13:00 49.02075 2.55652 366 ft 0 kts 168°
2026-05-08 13:00 49.02073 2.55657 366 ft 1 kts 145°
2026-05-08 13:00 49.02073 2.55672 365 ft 4 kts 93°
2026-05-08 13:01 49.02076 2.55767 366 ft 11 kts 87°
2026-05-08 13:01 49.02076 2.55781 366 ft 0 kts 87°
2026-05-08 13:01 49.02077 2.55792 365 ft 7 kts 87°
2026-05-08 13:01 49.02081 2.55931 363 ft 15 kts 87°
2026-05-08 13:02 49.02091 2.56084 366 ft 1 kts 83°
2026-05-08 13:02 49.02095 2.56142 363 ft 18 kts 85°
2026-05-08 13:03 49.02043 2.56313 364 ft 19 kts 155°
2026-05-08 13:03 49.01955 2.56362 365 ft 13 kts 138°
2026-05-08 13:03 49.01935 2.56498 366 ft 15 kts 89°
2026-05-08 13:03 49.01943 2.56655 365 ft 4 kts 85°
2026-05-08 13:04 49.01944 2.56675 364 ft 9 kts 85°
2026-05-08 13:05 49.01954 2.56852 359 ft 21 kts 85°
2026-05-08 13:05 49.01980 2.57054 364 ft 15 kts 50°
2026-05-08 13:05 49.02056 2.57146 362 ft 13 kts 67°
2026-05-08 13:05 49.02069 2.57299 365 ft 16 kts 85°
2026-05-08 13:06 49.02078 2.57482 364 ft 19 kts 85°
2026-05-08 13:06 49.02089 2.57694 365 ft 21 kts 87°
2026-05-08 13:06 49.02054 2.57920 363 ft 23 kts 119°
2026-05-08 13:06 49.01940 2.58078 362 ft 22 kts 156°
2026-05-08 13:07 49.01782 2.58130 363 ft 25 kts 173°
2026-05-08 13:07 49.01633 2.58145 363 ft 22 kts 174°
2026-05-08 13:07 49.01475 2.58169 362 ft 23 kts 174°
2026-05-08 13:07 49.01322 2.58185 364 ft 19 kts 175°
2026-05-08 13:08 49.01209 2.58201 363 ft 14 kts 174°
2026-05-08 13:08 49.01119 2.58214 365 ft 14 kts 174°
2026-05-08 13:08 49.01015 2.58226 358 ft 17 kts 177°
2026-05-08 13:08 49.00943 2.58235 360 ft 1 kts 166°
2026-05-08 13:09 49.00935 2.58238 362 ft 0 kts 166°
2026-05-08 13:09 49.00934 2.58239 362 ft 0 kts 159°
2026-05-08 13:09 49.00927 2.58255 367 ft 6 kts 123°
2026-05-08 13:09 49.00926 2.58414 365 ft 21 kts 85°
2026-05-08 13:10 49.00921 2.58583 367 ft 14 kts 117°
2026-05-08 13:10 49.00833 2.58667 365 ft 17 kts 160°
2026-05-08 13:10 49.00713 2.58698 365 ft 18 kts 175°
2026-05-08 13:10 49.00633 2.58708 359 ft 10 kts 175°
2026-05-08 13:11 49.00551 2.58719 360 ft 14 kts 177°
2026-05-08 13:11 49.00445 2.58728 366 ft 15 kts 174°
2026-05-08 13:11 49.00371 2.58699 364 ft 9 kts 255°
2026-05-08 13:11 49.00367 2.58625 358 ft 5 kts 265°
2026-05-08 13:12 49.00366 2.58603 361 ft 1 kts 265°
2026-05-08 13:12 49.00366 2.58596 362 ft 0 kts 265°